Ornskoldsvik, Sweden

9:44 PM CEST on October 17, 2017 (GMT +0200)
Ornskoldsvik

Weather History for ESNO - April, 2013

Change the Weather History Date:

Monday, April 22, 2013

  Actual Average Record
Temperature  
Mean Temperature 34 °F -  
Max Temperature 41 °F - - ()
Min Temperature 26 °F - - ()
Degree Days  
Heating Degree Days 32    
Moisture  
Dew Point 29 °F    
Average Humidity 81    
Maximum Humidity 93    
Minimum Humidity 65    
Precipitation  
Precipitation 0.00 in - - ()
Sea Level Pressure  
Sea Level Pressure 29.81 in    
Wind  
Wind Speed 7 mph ()    
Max Wind Speed 22 mph    
Max Gust Speed 32 mph    
Visibility 5.4 miles    
Events Fog    
T = Trace of Precipitation, MM = Missing Value Source: Averaged Metar Reports

Daily Weather History Graph

Daily Weather History Graph

Search for Another Location

Airport or City:

Trip Planner

Search our weather history database for the weather conditions in past years. The results will help you decide how hot, cold, wet, or windy it might be!

Date:

Astronomy

Apr. 22, 2013 Rise Set
Actual Time 4:51 AM CEST 8:35 PM CEST
Civil Twilight 3:54 AM CEST 9:33 PM CEST
Nautical Twilight 2:22 AM CEST 11:08 PM CEST
Astronomical Twilight Sun does not rise Sun does not rise
Moon 4:00 PM CEST (4/22) 3:50 AM CEST (4/22)
Length of Visible Light 17h 39m
Length of Day
15h 44m
Waxing Gibbous, 86% of the Moon is Illuminated
Apr 22
Waxing Gibbous
Apr 25
Full
May 2
Last Quarter
May 10
New
May 18
First Quarter

Hourly Weather History & Observations

Time (CEST) Temp. Windchill Dew Point Humidity Pressure Visibility Wind Dir Wind Speed Gust Speed Precip Events Conditions
12:20 AM 30.2 °F 26.7 °F 26.6 °F 86% 30.01 in 6.2 mi East 3.5 mph - N/A   Unknown
12:50 AM 30.2 °F 26.7 °F 26.6 °F 86% 30.01 in 6.2 mi East 3.5 mph - N/A   Unknown
1:20 AM 28.4 °F - 26.6 °F 93% 29.98 in 6.2 mi East 2.3 mph - N/A   Unknown
1:50 AM 28.4 °F 24.6 °F 24.8 °F 86% 29.98 in 6.2 mi East 3.5 mph - N/A   Unknown
2:20 AM 26.6 °F 22.6 °F 24.8 °F 93% 29.98 in 6.2 mi ENE 3.5 mph - N/A   Unknown
2:50 AM 26.6 °F - 24.8 °F 93% 29.98 in 6.2 mi East 2.3 mph - N/A   Unknown
3:20 AM 26.6 °F - 24.8 °F 93% 29.95 in 6.2 mi ENE 1.2 mph - N/A   Unknown
3:50 AM 26.6 °F 22.6 °F 24.8 °F 93% 29.95 in 6.2 mi ENE 3.5 mph - N/A   Unknown
4:20 AM 26.6 °F - 23.0 °F 86% 29.95 in 6.2 mi ENE 2.3 mph - N/A   Unknown
4:50 AM 26.6 °F - 23.0 °F 86% 29.95 in 6.2 mi Variable 1.2 mph - N/A   Scattered Clouds
5:20 AM 26.6 °F - 24.8 °F 93% 29.92 in 6.2 mi Variable 1.2 mph - N/A   Mostly Cloudy
5:50 AM 26.6 °F - 24.8 °F 93% 29.92 in 0.1 mi NNW 1.2 mph - N/A Fog Light Freezing Fog
6:20 AM 26.6 °F - 24.8 °F 93% 29.92 in 4.3 mi NNE 2.3 mph - N/A Fog Patches of Fog
6:50 AM 28.4 °F - 26.6 °F 93% 29.92 in 0.1 mi Variable 1.2 mph - N/A Fog Light Freezing Fog
7:20 AM 28.4 °F - 26.6 °F 93% 29.92 in 0.2 mi Variable 1.2 mph - N/A Fog Light Freezing Fog
7:50 AM 30.2 °F - 28.4 °F 93% 29.89 in 2.5 mi Calm Calm - N/A Fog Patches of Fog
8:20 AM 32.0 °F - 30.2 °F 93% 29.89 in - Variable 1.2 mph - N/A   Clear
8:50 AM 37.4 °F - 33.8 °F 87% 29.89 in - ESE 2.3 mph - N/A   Clear
9:20 AM 41.0 °F 36.4 °F 32.0 °F 70% 29.86 in - South 6.9 mph - N/A   Clear
9:50 AM 39.2 °F 32.5 °F 30.2 °F 70% 29.86 in - South 10.4 mph - N/A   Clear
10:20 AM 37.4 °F 28.9 °F 30.2 °F 75% 29.86 in - South 13.8 mph - N/A   Clear
10:50 AM 37.4 °F 29.3 °F 30.2 °F 75% 29.86 in 6.2 mi South 12.7 mph - N/A   Overcast
11:20 AM 37.4 °F 28.5 °F 30.2 °F 75% 29.86 in 6.2 mi South 15.0 mph - N/A   Mostly Cloudy
11:50 AM 37.4 °F 28.2 °F 28.4 °F 70% 29.86 in 6.2 mi South 16.1 mph - N/A   Mostly Cloudy
12:20 PM 37.4 °F 28.2 °F 28.4 °F 70% 29.83 in 6.2 mi South 16.1 mph - N/A   Overcast
12:50 PM 39.2 °F 30.2 °F 28.4 °F 65% 29.83 in - South 17.3 mph - N/A   Clear
1:20 PM 39.2 °F 30.5 °F 28.4 °F 65% 29.80 in - South 16.1 mph - N/A   Clear
1:50 PM 37.4 °F 27.2 °F 28.4 °F 70% 29.80 in - South 19.6 mph - N/A   Clear
2:20 PM 39.2 °F 29.6 °F 28.4 °F 65% 29.77 in - South 19.6 mph 31.1 mph N/A   Clear
2:50 PM 37.4 °F 26.6 °F 28.4 °F 70% 29.77 in - South 21.9 mph - N/A   Clear
3:20 PM 39.2 °F 29.8 °F 28.4 °F 65% 29.77 in - South 18.4 mph 32.2 mph N/A   Clear
3:50 PM 37.4 °F 27.8 °F 28.4 °F 70% 29.77 in - South 17.3 mph - N/A   Clear
4:20 PM 37.4 °F 27.8 °F 30.2 °F 75% 29.74 in - South 17.3 mph 28.8 mph N/A   Clear
4:50 PM 37.4 °F 28.2 °F 30.2 °F 75% 29.74 in - South 16.1 mph - N/A   Clear
5:20 PM 37.4 °F 28.5 °F 30.2 °F 75% 29.71 in - South 15.0 mph 26.5 mph N/A   Clear
5:50 PM 37.4 °F 28.2 °F 30.2 °F 75% 29.71 in 6.2 mi South 16.1 mph - N/A   Overcast
6:20 PM 37.4 °F 28.5 °F 30.2 °F 75% 29.68 in 6.2 mi South 15.0 mph - N/A   Overcast
6:50 PM 37.4 °F 28.5 °F 30.2 °F 75% 29.68 in - South 15.0 mph - N/A   Clear
7:20 PM 35.6 °F 27.5 °F 30.2 °F 81% 29.68 in - South 11.5 mph - N/A   Clear
7:50 PM 37.4 °F 30.8 °F 30.2 °F 75% 29.68 in 6.2 mi South 9.2 mph - N/A   Scattered Clouds
8:20 PM 35.6 °F 27.1 °F 30.2 °F 81% 29.65 in 6.2 mi South 12.7 mph - N/A   Mostly Cloudy
8:50 PM 37.4 °F 29.3 °F 30.2 °F 75% 29.62 in 6.2 mi South 12.7 mph - N/A   Mostly Cloudy
9:20 PM 37.4 °F 27.8 °F 32.0 °F 81% 29.62 in 6.2 mi South 17.3 mph 28.8 mph N/A   Mostly Cloudy
9:50 PM 37.4 °F 27.8 °F 32.0 °F 81% 29.59 in 6.2 mi South 17.3 mph - N/A   Overcast
10:20 PM 35.6 °F 25.2 °F 32.0 °F 87% 29.59 in 6.2 mi South 18.4 mph - N/A   Overcast
10:50 PM 35.6 °F 25.9 °F 32.0 °F 87% 29.56 in 6.2 mi South 16.1 mph - N/A   Overcast
11:20 PM 35.6 °F 26.2 °F 33.8 °F 93% 29.56 in 6.2 mi South 15.0 mph - N/A   Overcast
11:50 PM 35.6 °F 26.6 °F 33.8 °F 93% 29.56 in 6.2 mi South 13.8 mph - N/A   Overcast